Language: 


Des rapports , des résumés tant et plus, au choix de chacun....


Données statistiques de la station
Quotidien Rapport Décembre 9, 2017 Unités:  Anglais    Métrique   les deux
« Précédent Jour
Suivant Jour »
Quotidien Hebdomadaire Mensuel Annuel Actuel
  Haut: Bas: Moyen:
Température: TemperatureC °F -1.4 °F 1 °F
Pt de rosée: DewpointC °F -3.0 °F -0.3 °F
Humidité: Humidity % 79 % 91 %
Vitesse du vent: WindSpeedKMH mph 0.0 mph 8.3 mph
Rafales: WindSpeedGustKMH mph - -
Vent:- - WSW
Pression: PressurehPa in 1007.0 in -
Précipitation: 0.0 in    
Historical Graphs
 
 
Données statistiques pour Décembre 9, 2017
Heure Température Point de rosée Pression Vent Vitesse du vent Refales Humidité Pluie (taux horaire)
TemperatureC °F DewpointC °F PressurehPa in Calm     Humidity % HourlyPrecipMM in
00:01 0.2 °F -1.0 °F 1015.1 in WSW 8.7 mph 12.2 mph 87 % 0.0 in
00:06 0.2 °F -1.0 °F 1015.1 in West 9.0 mph 14.0 mph 88 % 0.0 in
00:22 0.2 °F -1.0 °F 1015.1 in WSW 9.7 mph 15.4 mph 89 % 0.0 in
00:27 0.2 °F -1.0 °F 1015.1 in West 9.0 mph 12.6 mph 89 % 0.0 in
00:32 0.1 °F -1.0 °F 1015.1 in West 10.1 mph 12.6 mph 89 % 0.0 in
00:37 0.1 °F -1.0 °F 1015.1 in West 9.7 mph 11.9 mph 89 % 0.0 in
00:42 0.2 °F -1.0 °F 1014.1 in West 7.6 mph 11.6 mph 90 % 0.0 in
00:47 0.4 °F -1.0 °F 1014.1 in West 7.9 mph 12.6 mph 91 % 0.0 in
00:52 0.4 °F -1.0 °F 1014.1 in West 6.4 mph 13.7 mph 91 % 0.0 in
00:57 0.5 °F 0.0 °F 1014.1 in West 8.7 mph 13.7 mph 91 % 0.0 in
01:02 0.5 °F 0.0 °F 1014.1 in West 2.6 mph 14.0 mph 91 % 0.0 in
01:07 0.4 °F -1.0 °F 1014.1 in West 11.6 mph 14.0 mph 91 % 0.0 in
01:17 0.4 °F -1.0 °F 1015.1 in West 13.0 mph 13.0 mph 91 % 0.0 in
01:27 0.4 °F -1.0 °F 1014.1 in West 9.7 mph 13.0 mph 91 % 0.0 in
01:32 0.3 °F -1.0 °F 1014.1 in West 11.9 mph 11.9 mph 91 % 0.0 in
01:37 0.3 °F -1.0 °F 1014.1 in WSW 10.1 mph 11.9 mph 91 % 0.0 in
01:42 0.2 °F -1.0 °F 1015.1 in West 10.5 mph 11.9 mph 90 % 0.0 in
01:47 0.1 °F -1.0 °F 1015.1 in WSW 1.4 mph 10.5 mph 90 % 0.0 in
01:52 0.0 °F -2.0 °F 1015.1 in West 6.1 mph 10.5 mph 90 % 0.0 in
01:58 0.0 °F -2.0 °F 1014.1 in WSW 5.8 mph 11.6 mph 91 % 0.0 in
02:08 -0.3 °F -3.0 °F 1014.1 in SW 6.9 mph 10.1 mph 90 % 0.0 in
02:13 -0.4 °F -3.0 °F 1015.1 in Calm   10.1 mph 90 % 0.0 in
02:18 -0.5 °F -3.0 °F 1015.1 in West 8.7 mph 10.1 mph 91 % 0.0 in
02:28 -0.5 °F -3.0 °F 1015.1 in Calm   10.5 mph 92 % 0.0 in
02:38 -0.5 °F -3.0 °F 1015.1 in West 6.1 mph 11.9 mph 92 % 0.0 in
02:43 -0.5 °F -2.0 °F 1015.1 in West 4.7 mph 11.6 mph 93 % 0.0 in
02:48 -0.5 °F -2.0 °F 1015.1 in West 8.7 mph 11.6 mph 93 % 0.0 in
03:04 -0.6 °F -2.0 °F 1015.1 in SW 5.8 mph 8.5 mph 94 % 0.0 in
03:14 -0.7 °F -2.0 °F 1015.1 in WSW 8.7 mph 11.1 mph 94 % 0.0 in
03:19 -0.7 °F -2.0 °F 1015.1 in WSW 6.9 mph 10.1 mph 94 % 0.0 in
03:24 -0.7 °F -2.0 °F 1015.1 in West 6.4 mph 10.1 mph 94 % 0.0 in
03:29 -0.8 °F -3.0 °F 1015.1 in West 7.9 mph 9.0 mph 94 % 0.0 in
03:34 -0.7 °F -2.0 °F 1015.1 in West 6.1 mph 9.0 mph 95 % 0.0 in
03:49 -0.8 °F -2.0 °F 1015.1 in Calm   10.1 mph 95 % 0.0 in
03:54 -0.9 °F -2.0 °F 1015.1 in WSW 1.4 mph 9.7 mph 95 % 0.0 in
04:02 -0.9 °F -2.0 °F 1015.1 in West 7.9 mph 9.7 mph 95 % 0.0 in
04:07 -0.9 °F -2.0 °F 1015.1 in West 10.5 mph 10.5 mph 95 % 0.0 in
04:13 -0.8 °F -2.0 °F 1014.1 in West 5.5 mph 14.0 mph 95 % 0.0 in
04:18 -0.7 °F -2.0 °F 1014.1 in West 9.3 mph 14.0 mph 96 % 0.0 in
04:23 -0.6 °F -2.0 °F 1014.1 in WSW 8.7 mph 12.2 mph 96 % 0.0 in
04:24 -0.6 °F -2.0 °F 1014.1 in West 12.6 mph 12.6 mph 96 % 0.0 in
04:27 -0.6 °F -2.0 °F 1015.1 in West 9.3 mph 12.6 mph 96 % 0.0 in
04:32 -0.5 °F -2.0 °F 1015.1 in West 10.5 mph 13.0 mph 97 % 0.0 in
04:42 -0.5 °F -2.0 °F 1015.1 in WSW 12.6 mph 12.6 mph 97 % 0.0 in
04:47 -0.5 °F -2.0 °F 1015.1 in West 13.7 mph 14.0 mph 97 % 0.0 in
04:57 -0.5 °F -2.0 °F 1015.1 in WSW 9.7 mph 13.0 mph 97 % 0.0 in
05:03 -0.6 °F -2.0 °F 1015.1 in West 12.2 mph 13.7 mph 96 % 0.0 in
05:08 -0.6 °F -2.0 °F 1015.1 in WSW 9.0 mph 14.0 mph 96 % 0.0 in
05:13 -0.6 °F -2.0 °F 1015.1 in WSW 9.3 mph 15.1 mph 96 % 0.0 in
05:18 -0.6 °F -2.0 °F 1015.1 in West 8.7 mph 15.1 mph 96 % 0.0 in
05:23 -0.6 °F -2.0 °F 1015.1 in WSW 9.3 mph 12.2 mph 96 % 0.0 in
05:28 -0.6 °F -2.0 °F 1015.1 in West 6.9 mph 13.7 mph 96 % 0.0 in
05:38 -0.6 °F -2.0 °F 1015.1 in WSW 4.7 mph 13.0 mph 97 % 0.0 in
05:43 -0.6 °F -2.0 °F 1015.1 in WSW 9.0 mph 13.0 mph 97 % 0.0 in
05:49 -0.6 °F -2.0 °F 1015.1 in West 8.7 mph 14.0 mph 97 % 0.0 in
05:54 -0.6 °F -2.0 °F 1015.1 in West 10.1 mph 14.0 mph 97 % 0.0 in
05:59 -0.6 °F -2.0 °F 1015.1 in West 6.4 mph 13.0 mph 97 % 0.0 in
06:09 -0.6 °F -2.0 °F 1015.1 in SW 9.3 mph 11.9 mph 97 % 0.0 in
06:14 -0.7 °F -2.0 °F 1015.1 in West 8.7 mph 12.2 mph 96 % 0.0 in
06:29 -0.8 °F -2.0 °F 1015.1 in West 5.0 mph 10.5 mph 96 % 0.0 in
06:34 -0.8 °F -2.0 °F 1015.1 in SW 9.7 mph 15.4 mph 96 % 0.0 in
06:39 -0.8 °F -2.0 °F 1015.1 in West 10.5 mph 15.4 mph 96 % 0.0 in
06:42 -0.8 °F -2.0 °F 1014.1 in West 6.9 mph 15.4 mph 96 % 0.0 in
06:47 -0.8 °F -2.0 °F 1014.1 in West 7.9 mph 11.9 mph 97 % 0.0 in
06:57 -0.9 °F -2.0 °F 1015.1 in Calm   9.0 mph 96 % 0.0 in
07:02 -1.1 °F -2.0 °F 1015.1 in WSW 5.5 mph 7.9 mph 96 % 0.0 in
07:07 -1.2 °F -2.0 °F 1015.1 in WSW 5.0 mph 10.1 mph 96 % 0.0 in
07:12 -1.1 °F -2.0 °F 1015.1 in West 6.9 mph 12.2 mph 96 % 0.0 in
07:17 -1.0 °F -2.0 °F 1015.1 in West 6.9 mph 12.2 mph 97 % 0.0 in
07:27 -1.1 °F -2.0 °F 1015.1 in West 7.9 mph 11.9 mph 97 % 0.0 in
07:32 -1.1 °F -2.0 °F 1015.1 in WSW 9.3 mph 11.9 mph 97 % 0.0 in
07:42 -1.3 °F -2.0 °F 1015.1 in WSW 7.9 mph 10.1 mph 97 % 0.0 in
07:52 -1.3 °F -2.0 °F 1015.1 in West 9.3 mph 10.5 mph 97 % 0.0 in
07:57 -1.3 °F -2.0 °F 1015.1 in WSW 6.9 mph 10.5 mph 97 % 0.0 in
08:02 -1.3 °F -2.0 °F 1015.1 in West 10.1 mph 10.5 mph 97 % 0.0 in
08:07 -1.3 °F -2.0 °F 1015.1 in WSW 9.3 mph 10.5 mph 97 % 0.0 in
08:17 -1.3 °F -2.0 °F 1014.1 in West 9.3 mph 13.7 mph 97 % 0.0 in
08:22 -1.4 °F -2.0 °F 1014.1 in WSW 9.7 mph 13.7 mph 98 % 0.0 in
08:28 -1.3 °F -2.0 °F 1015.1 in West 7.9 mph 11.1 mph 98 % 0.0 in
08:33 -1.3 °F -2.0 °F 1015.1 in West 4.0 mph 11.1 mph 98 % 0.0 in
08:38 -1.3 °F -2.0 °F 1015.1 in West 5.8 mph 12.2 mph 98 % 0.0 in
08:48 -1.2 °F -2.0 °F 1015.1 in WSW 10.1 mph 13.0 mph 98 % 0.0 in
08:53 -1.2 °F -2.0 °F 1015.1 in West 12.6 mph 15.4 mph 98 % 0.0 in
08:55 -1.2 °F -2.0 °F 1015.1 in WSW 8.7 mph 17.7 mph 98 % 0.0 in
09:01 -1.2 °F -2.0 °F 1015.1 in West 12.2 mph 17.7 mph 98 % 0.0 in
09:06 -1.2 °F -2.0 °F 1015.1 in West 10.5 mph 16.9 mph 98 % 0.0 in
09:11 -0.5 °F -1.0 °F 1015.1 in West 9.3 mph 16.9 mph 98 % 0.0 in
09:16 -0.4 °F -1.0 °F 1015.1 in WSW 13.7 mph 13.7 mph 98 % 0.0 in
09:21 -0.4 °F -1.0 °F 1015.1 in West 6.4 mph 15.8 mph 98 % 0.0 in
09:26 -0.4 °F -1.0 °F 1015.1 in West 10.5 mph 15.8 mph 98 % 0.0 in
09:31 -0.4 °F -1.0 °F 1015.1 in West 14.8 mph 14.8 mph 98 % 0.0 in
09:32 -0.4 °F -1.0 °F 1015.1 in West 10.8 mph 14.8 mph 98 % 0.0 in
09:38 -0.4 °F -1.0 °F 1015.1 in West 7.9 mph 14.8 mph 98 % 0.0 in
09:58 -0.4 °F -1.0 °F 1016.1 in West 12.6 mph 14.0 mph 98 % 0.0 in
10:03 -0.4 °F -1.0 °F 1016.1 in WSW 10.1 mph 15.8 mph 98 % 0.0 in
10:08 -0.4 °F -1.0 °F 1016.1 in WSW 12.2 mph 15.8 mph 98 % 0.0 in
10:18 -0.4 °F -1.0 °F 1016.1 in WSW 9.0 mph 13.7 mph 98 % 0.0 in
10:23 -0.4 °F -1.0 °F 1016.1 in WSW 6.9 mph 13.7 mph 98 % 0.0 in
10:28 -0.4 °F -1.0 °F 1016.1 in WSW 6.4 mph 12.2 mph 98 % 0.0 in
10:33 -0.4 °F -1.0 °F 1016.1 in WSW 11.1 mph 12.2 mph 98 % 0.0 in
10:38 1.5 °F 1.0 °F 1016.1 in WSW 8.7 mph 11.1 mph 97 % 0.0 in
10:43 1.6 °F 1.0 °F 1015.1 in West 9.0 mph 12.2 mph 97 % 0.0 in
10:53 1.8 °F 1.0 °F 1015.1 in WSW 9.3 mph 16.6 mph 95 % 0.0 in
10:58 1.9 °F 1.0 °F 1016.1 in West 14.0 mph 15.8 mph 94 % 0.0 in
11:03 2.0 °F 1.0 °F 1016.1 in WSW 11.9 mph 16.6 mph 93 % 0.0 in
11:08 2.2 °F 1.0 °F 1016.1 in WSW 13.7 mph 16.6 mph 93 % 0.0 in
11:13 2.3 °F 1.0 °F 1016.1 in WSW 12.6 mph 14.0 mph 92 % 0.0 in
11:19 2.4 °F 1.0 °F 1016.1 in SSW 10.1 mph 14.0 mph 92 % 0.0 in
11:24 2.6 °F 2.0 °F 1016.1 in WSW 16.6 mph 16.9 mph 91 % 0.0 in
11:29 2.7 °F 1.0 °F 1016.1 in WSW 13.0 mph 16.9 mph 90 % 0.0 in
11:34 2.8 °F 2.0 °F 1016.1 in WSW 11.6 mph 16.9 mph 90 % 0.0 in
11:44 3.0 °F 2.0 °F 1016.1 in West 14.0 mph 18.0 mph 89 % 0.0 in
12:04 3.3 °F 2.0 °F 1015.1 in WSW 10.5 mph 16.9 mph 87 % 0.0 in
12:09 3.5 °F 2.0 °F 1015.1 in WSW 13.0 mph 16.9 mph 87 % 0.0 in
12:14 3.6 °F 2.0 °F 1015.1 in WSW 14.0 mph 17.7 mph 86 % 0.0 in
12:19 3.7 °F 2.0 °F 1015.1 in WSW 9.7 mph 17.7 mph 86 % 0.0 in
12:29 3.9 °F 2.0 °F 1015.1 in WSW 14.0 mph 19.8 mph 85 % 0.0 in
12:44 4.1 °F 1.0 °F 1015.1 in WSW 10.5 mph 19.5 mph 83 % 0.0 in
12:49 4.2 °F 2.0 °F 1015.1 in WNW 10.5 mph 16.9 mph 82 % 0.0 in
12:54 4.2 °F 1.0 °F 1015.1 in West 13.0 mph 20.1 mph 81 % 0.0 in
13:00 4.0 °F 1.0 °F 1015.1 in West 12.6 mph 20.9 mph 79 % 0.0 in
13:05 3.8 °F 1.0 °F 1015.1 in SSW 8.7 mph 20.9 mph 79 % 0.0 in
13:10 3.7 °F 1.0 °F 1015.1 in WSW 13.0 mph 19.5 mph 80 % 0.0 in
13:15 3.6 °F 1.0 °F 1015.1 in West 9.7 mph 20.1 mph 80 % 0.0 in
13:20 3.6 °F 1.0 °F 1015.1 in WSW 13.7 mph 20.9 mph 80 % 0.0 in
13:25 3.6 °F 1.0 °F 1015.1 in West 9.7 mph 20.9 mph 80 % 0.0 in
13:30 3.6 °F 1.0 °F 1016.1 in West 10.1 mph 19.1 mph 81 % 0.0 in
13:35 3.6 °F 1.0 °F 1016.1 in West 13.7 mph 20.1 mph 80 % 0.0 in
13:40 3.5 °F 1.0 °F 1016.1 in SW 16.3 mph 23.8 mph 79 % 0.0 in
13:45 3.5 °F 1.0 °F 1015.1 in West 9.7 mph 23.8 mph 79 % 0.0 in
13:50 3.5 °F 1.0 °F 1015.1 in West 13.7 mph 20.6 mph 80 % 0.0 in
13:56 3.4 °F 0.0 °F 1015.1 in West 9.0 mph 17.7 mph 79 % 0.0 in
14:01 3.4 °F 1.0 °F 1015.1 in WSW 12.6 mph 17.7 mph 80 % 0.0 in
14:06 3.5 °F 1.0 °F 1015.1 in West 9.7 mph 15.8 mph 80 % 0.0 in
14:11 3.5 °F 1.0 °F 1015.1 in West 14.0 mph 15.4 mph 81 % 0.0 in
14:16 3.5 °F 1.0 °F 1015.1 in WSW 9.3 mph 16.3 mph 80 % 0.0 in
14:21 3.6 °F 1.0 °F 1015.1 in West 10.5 mph 16.3 mph 79 % 0.0 in
14:31 3.6 °F 1.0 °F 1014.1 in WSW 9.3 mph 14.8 mph 79 % 0.0 in
14:36 3.6 °F 1.0 °F 1014.1 in WSW 11.9 mph 14.0 mph 79 % 0.0 in
14:51 3.6 °F 1.0 °F 1014.1 in West 6.4 mph 13.0 mph 81 % 0.0 in
15:01 3.5 °F 1.0 °F 1014.1 in WSW 6.9 mph 10.1 mph 82 % 0.0 in
15:06 3.4 °F 1.0 °F 1014.1 in WSW 6.4 mph 10.1 mph 82 % 0.0 in
15:11 3.3 °F 1.0 °F 1014.1 in SW 7.6 mph 10.1 mph 82 % 0.0 in
15:16 3.3 °F 1.0 °F 1014.1 in WSW 7.9 mph 10.1 mph 82 % 0.0 in
15:21 3.3 °F 1.0 °F 1014.1 in West 9.3 mph 10.5 mph 82 % 0.0 in
15:26 3.3 °F 1.0 °F 1013.1 in WSW 7.6 mph 13.0 mph 82 % 0.0 in
15:41 3.7 °F 1.0 °F 1013.1 in Calm   11.6 mph 82 % 0.0 in
15:46 3.6 °F 1.0 °F 1013.1 in WSW 7.2 mph 12.2 mph 82 % 0.0 in
16:02 3.4 °F 1.0 °F 1013.1 in SSW 6.1 mph 9.3 mph 81 % 0.0 in
16:07 3.4 °F 1.0 °F 1013.1 in SW 7.9 mph 9.0 mph 81 % 0.0 in
16:12 3.3 °F 1.0 °F 1013.1 in SSW 4.7 mph 9.0 mph 80 % 0.0 in
16:17 3.3 °F 1.0 °F 1013.1 in Calm   9.3 mph 80 % 0.0 in
16:27 3.0 °F 0.0 °F 1013.1 in SSW 6.9 mph 9.3 mph 80 % 0.0 in
16:32 2.9 °F 0.0 °F 1013.1 in SW 6.1 mph 9.0 mph 81 % 0.0 in
16:37 2.8 °F 0.0 °F 1013.1 in Calm   7.6 mph 81 % 0.0 in
16:42 2.7 °F 0.0 °F 1013.1 in SW 5.0 mph 7.9 mph 81 % 0.0 in
16:47 2.6 °F 0.0 °F 1013.1 in SSW 5.0 mph 7.9 mph 81 % 0.0 in
16:52 2.5 °F 0.0 °F 1013.1 in Calm   8.7 mph 82 % 0.0 in
16:57 2.5 °F 0.0 °F 1013.1 in SW 7.9 mph 9.7 mph 82 % 0.0 in
17:02 2.5 °F 0.0 °F 1013.1 in SW 8.7 mph 9.7 mph 82 % 0.0 in
17:07 2.4 °F 0.0 °F 1013.1 in WSW 7.6 mph 9.3 mph 82 % 0.0 in
17:12 2.1 °F -1.0 °F 1013.1 in WSW 9.0 mph 9.7 mph 81 % 0.0 in
17:17 2.0 °F -1.0 °F 1013.1 in WSW 8.7 mph 10.1 mph 81 % 0.0 in
17:22 1.8 °F -1.0 °F 1013.1 in WSW 9.0 mph 10.1 mph 82 % 0.0 in
17:27 1.6 °F -1.0 °F 1012.1 in WSW 7.9 mph 9.7 mph 82 % 0.0 in
17:32 1.5 °F -1.0 °F 1012.1 in Calm   9.3 mph 83 % 0.0 in
17:38 1.4 °F -1.0 °F 1012.1 in WSW 7.9 mph 9.3 mph 83 % 0.0 in
17:39 1.4 °F -1.0 °F 1012.1 in WSW 5.0 mph 9.3 mph 83 % 0.0 in
17:44 1.3 °F -1.0 °F 1012.1 in WSW 8.7 mph 9.0 mph 84 % 0.0 in
17:49 1.5 °F 0.0 °F 1012.1 in SW 7.9 mph 10.1 mph 85 % 0.0 in
17:54 1.6 °F 0.0 °F 1012.1 in SSW 6.1 mph 10.1 mph 85 % 0.0 in
17:59 1.7 °F 0.0 °F 1012.1 in SSW 10.1 mph 10.1 mph 85 % 0.0 in
18:09 1.9 °F 0.0 °F 1012.1 in SSW 10.5 mph 14.0 mph 85 % 0.0 in
18:14 1.9 °F 0.0 °F 1012.1 in SSW 6.4 mph 13.0 mph 86 % 0.0 in
18:20 1.8 °F 0.0 °F 1012.1 in WSW 7.9 mph 12.2 mph 86 % 0.0 in
18:25 1.8 °F 0.0 °F 1012.1 in SW 7.9 mph 11.9 mph 86 % 0.0 in
18:30 1.8 °F 0.0 °F 1012.1 in WSW 11.9 mph 14.0 mph 87 % 0.0 in
18:45 1.7 °F 0.0 °F 1011.1 in SSW 9.7 mph 14.3 mph 89 % 0.0 in
18:50 1.7 °F 0.0 °F 1011.1 in SW 10.1 mph 15.8 mph 89 % 0.0 in
18:55 1.6 °F 0.0 °F 1011.1 in SSW 13.7 mph 16.6 mph 90 % 0.0 in
19:00 1.6 °F 1.0 °F 1011.1 in SSW 9.3 mph 16.6 mph 91 % 0.0 in
19:05 1.6 °F 1.0 °F 1011.1 in SSW 9.3 mph 14.0 mph 91 % 0.0 in
19:10 1.5 °F 1.0 °F 1011.1 in WSW 6.4 mph 14.0 mph 91 % 0.0 in
19:25 1.3 °F 0.0 °F 1011.1 in South 10.5 mph 10.8 mph 92 % 0.0 in
19:40 1.3 °F 1.0 °F 1011.1 in SW 6.9 mph 12.6 mph 94 % 0.0 in
19:50 1.2 °F 1.0 °F 1011.1 in SSW 9.3 mph 11.9 mph 94 % 0.0 in
19:55 1.2 °F 1.0 °F 1011.1 in Calm   11.9 mph 94 % 0.0 in
20:00 1.2 °F 1.0 °F 1011.1 in SW 8.7 mph 10.5 mph 95 % 0.0 in
20:06 1.2 °F 1.0 °F 1011.1 in SSW 7.9 mph 14.0 mph 95 % 0.0 in
20:16 1.3 °F 1.0 °F 1011.1 in WSW 6.9 mph 11.6 mph 96 % 0.0 in
20:21 1.3 °F 1.0 °F 1011.1 in South 10.5 mph 12.6 mph 96 % 0.0 in
20:31 1.4 °F 1.0 °F 1011.1 in South 8.7 mph 10.5 mph 97 % 0.0 in
20:36 1.4 °F 1.0 °F 1011.1 in SW 6.9 mph 10.8 mph 97 % 0.0 in
20:41 1.5 °F 1.0 °F 1011.1 in SW 9.7 mph 10.8 mph 97 % 0.0 in
20:46 1.6 °F 1.0 °F 1011.1 in SW 13.7 mph 13.7 mph 97 % 0.0 in
20:51 1.6 °F 1.0 °F 1011.1 in SW 6.4 mph 13.7 mph 97 % 0.0 in
20:56 1.6 °F 2.0 °F 1010.0 in WSW 13.0 mph 14.0 mph 98 % 0.0 in
21:01 1.6 °F 2.0 °F 1010.0 in WSW 7.9 mph 14.0 mph 98 % 0.0 in
21:06 1.7 °F 2.0 °F 1010.0 in SW 9.3 mph 14.0 mph 98 % 0.0 in
21:16 1.6 °F 2.0 °F 1010.0 in SW 7.9 mph 12.6 mph 98 % 0.0 in
21:21 1.7 °F 2.0 °F 1010.0 in WSW 10.5 mph 13.0 mph 98 % 0.0 in
21:26 1.7 °F 2.0 °F 1009.0 in SW 10.8 mph 13.0 mph 98 % 0.0 in
21:37 1.6 °F 2.0 °F 1009.0 in SSW 7.9 mph 11.6 mph 98 % 0.0 in
21:47 1.7 °F 2.0 °F 1009.0 in WSW 7.9 mph 11.6 mph 98 % 0.0 in
22:02 1.6 °F 2.0 °F 1009.0 in SW 10.8 mph 10.8 mph 98 % 0.0 in
22:07 1.6 °F 2.0 °F 1009.0 in SSW 5.8 mph 11.9 mph 98 % 0.0 in
22:12 1.6 °F 2.0 °F 1009.0 in SW 8.7 mph 11.9 mph 98 % 0.0 in
22:22 1.5 °F 2.0 °F 1009.0 in SSW 6.9 mph 9.3 mph 98 % 0.0 in
22:32 1.4 °F 1.0 °F 1009.0 in Calm   7.9 mph 98 % 0.0 in
22:37 1.4 °F 1.0 °F 1009.0 in West 5.8 mph 5.8 mph 98 % 0.0 in
22:47 1.4 °F 1.0 °F 1009.0 in SSW 4.7 mph 6.9 mph 98 % 0.0 in
22:52 1.4 °F 1.0 °F 1009.0 in Calm   6.9 mph 98 % 0.0 in
22:57 1.4 °F 1.0 °F 1008.0 in South 2.6 mph 6.9 mph 98 % 0.0 in
23:08 1.4 °F 1.0 °F 1008.0 in Calm   5.5 mph 98 % 0.0 in
23:13 1.4 °F 1.0 °F 1007.0 in Calm   5.8 mph 98 % 0.0 in
23:18 1.4 °F 1.0 °F 1007.0 in SSW 5.0 mph 8.7 mph 98 % 0.0 in
23:23 1.4 °F 1.0 °F 1007.0 in SW 4.3 mph 8.7 mph 98 % 0.0 in
23:28 1.4 °F 1.0 °F 1007.0 in Calm   7.9 mph 98 % 0.0 in
23:33 1.4 °F 1.0 °F 1007.0 in SSW 4.3 mph 6.4 mph 98 % 0.0 in
23:38 1.4 °F 1.0 °F 1007.0 in Calm   6.4 mph 98 % 0.0 in
23:53 1.4 °F 1.0 °F 1007.0 in SW 9.0 mph 12.2 mph 98 % 0.0 in
23:58 1.4 °F 1.0 °F 1007.0 in SSW 6.1 mph 11.6 mph 98 % 0.0 in
Le Gheer Warneton
Courtoisie de Weather Underground - 2 mb

Mise a jour : 18/02/2018 20:38:11
Généré par Cumulus 1.9.4 (1099)